START_TIME,STEP,MOV.,P11,t_acc.,P23,t_acc.,P27,t_acc.,A4,t_acc.
1979-08-02 00:00:21.950 ,0,0,2.,4.8,0.,4.8,0.,4.8,0.,4.8
1979-08-02 00:00:26.750 ,0,0,1.,4.8,0.,4.8,0.,4.8,0.,4.8
1979-08-02 00:00:31.550 ,0,0,0.,4.8,0.,4.8,0.,4.8,0.,4.8
1979-08-02 00:00:36.350 ,0,0,0.,4.8,0.,4.8,0.,4.8,0.,4.8
1979-08-02 00:00:41.150 ,0,0,0.,4.8,1.,4.8,0.,4.8,0.,4.8
1979-08-02 00:00:45.950 ,1,0,0.,4.8,0.,4.8,0.,4.8,0.,4.8
1979-08-02 00:00:50.750 ,1,0,2.,4.8,0.,4.8,0.,4.8,0.,4.8
1979-08-02 00:00:55.550 ,1,0,2.,4.8,0.,4.8,0.,4.8,0.,4.8
1979-08-02 00:01:00.350 ,1,0,0.,4.8,0.,4.8,0.,4.8,0.,4.8
1979-08-02 00:01:05.150 ,1,0,1.,4.8,0.,4.8,0.,4.8,0.,4.8
1979-08-02 00:01:09.950 ,1,0,1.,4.8,0.,4.8,0.,4.8,0.,4.8
1979-08-02 00:01:14.750 ,1,0,1.,4.8,0.,4.8,0.,4.8,0.,4.8
1979-08-02 00:01:19.550 ,1,0,0.,4.8,0.,4.8,0.,4.8,0.,4.8
1979-08-02 00:01:24.350 ,1,0,3.,4.8,0.,4.8,0.,4.8,0.,4.8
1979-08-02 00:01:29.150 ,1,0,1.,4.8,0.,4.8,0.,4.8,0.,4.8
1979-08-02 00:01:33.950 ,2,0,3.,4.8,0.,4.8,0.,4.8,0.,4.8
1979-08-02 00:01:38.750 ,2,0,0.,4.8,0.,4.8,0.,4.8,0.,4.8
1979-08-02 00:01:43.550 ,2,0,2.,4.8,0.,4.8,0.,4.8,0.,4.8
1979-08-02 00:01:48.350 ,2,0,0.,4.8,0.,4.8,0.,4.8,0.,4.8
1979-08-02 00:01:53.150 ,2,0,1.,4.8,0.,4.8,0.,4.8,0.,4.8
1979-08-02 00:01:57.950 ,2,0,0.,4.8,0.,4.8,0.,4.8,0.,4.8
1979-08-02 00:02:02.750 ,2,0,1.,4.8,0.,4.8,2.,4.8,0.,4.8
1979-08-02 00:02:07.550 ,2,0,1.,4.8,0.,4.8,0.,4.8,0.,4.8
1979-08-02 00:02:12.350 ,2,0,0.,4.8,0.,4.8,1.,4.8,0.,4.8
1979-08-02 00:02:17.150 ,2,0,1.,4.8,0.,4.8,0.,4.8,0.,4.8
1979-08-02 00:02:21.950 ,3,0,2.,4.8,0.,4.8,0.,4.8,0.,4.8
1979-08-02 00:02:26.750 ,3,0,1.,4.8,0.,4.8,1.,4.8,0.,4.8
1979-08-02 00:02:31.550 ,3,0,3.,4.8,0.,4.8,0.,4.8,0.,4.8
1979-08-02 00:02:36.350 ,3,0,0.,4.8,0.,4.8,1.,4.8,0.,4.8
1979-08-02 00:02:41.150 ,3,0,2.,4.8,0.,4.8,0.,4.8,0.,4.8
1979-08-02 00:02:45.950 ,3,0,0.,4.8,0.,4.8,0.,4.8,0.,4.8
1979-08-02 00:02:50.750 ,3,0,0.,4.8,0.,4.8,0.,4.8,0.,4.8
1979-08-02 00:02:55.550 ,3,0,5.,4.8,1.,4.8,0.,4.8,0.,4.8
1979-08-02 00:03:00.350 ,3,0,0.,4.8,0.,4.8,0.,4.8,0.,4.8
1979-08-02 00:03:05.150 ,3,0,0.,4.8,0.,4.8,0.,4.8,0.,4.8
1979-08-02 00:03:09.950 ,4,0,3.,4.8,0.,4.8,0.,4.8,0.,4.8
1979-08-02 00:03:14.750 ,4,0,3.,4.8,0.,4.8,0.,4.8,0.,4.8
1979-08-02 00:03:19.550 ,4,0,2.,4.8,0.,4.8,0.,4.8,0.,4.8
1979-08-02 00:03:24.350 ,4,0,2.,4.8,0.,4.8,0.,4.8,0.,4.8
1979-08-02 00:03:29.150 ,4,0,1.,4.8,0.,4.8,0.,4.8,0.,4.8
1979-08-02 00:03:33.950 ,4,0,1.,4.8,0.,4.8,0.,4.8,0.,4.8
1979-08-02 00:03:38.750 ,4,0,1.,4.8,0.,4.8,0.,4.8,0.,4.8
1979-08-02 00:03:43.550 ,4,0,1.,4.8,0.,4.8,1.,4.8,0.,4.8
1979-08-02 00:03:48.350 ,4,0,1.,4.8,0.,4.8,0.,4.8,0.,4.8
1979-08-02 00:03:53.150 ,4,0,3.,4.8,0.,4.8,0.,4.8,0.,4.8
1979-08-02 00:03:57.950 ,5,0,1.,4.8,0.,4.8,1.,4.8,0.,4.8
1979-08-02 00:04:02.750 ,5,0,0.,4.8,0.,4.8,0.,4.8,0.,4.8
1979-08-02 00:04:07.550 ,5,0,0.,4.8,0.,4.8,1.,4.8,0.,4.8
1979-08-02 00:04:12.350 ,5,0,0.,4.8,0.,4.8,0.,4.8,0.,4.8
1979-08-02 00:04:17.150 ,5,0,2.,4.8,0.,4.8,0.,4.8,0.,4.8
1979-08-02 00:04:21.950 ,5,0,1.,4.8,0.,4.8,1.,4.8,0.,4.8
1979-08-02 00:04:26.750 ,5,0,2.,4.8,0.,4.8,1.,4.8,0.,4.8
1979-08-02 00:04:31.550 ,5,0,1.,4.8,0.,4.8,0.,4.8,0.,4.8
1979-08-02 00:04:36.350 ,5,0,1.,4.8,0.,4.8,0.,4.8,0.,4.8
1979-08-02 00:04:41.150 ,5,0,1.,4.8,0.,4.8,0.,4.8,0.,4.8
1979-08-02 00:04:45.950 ,6,0,0.,4.8,0.,4.8,0.,4.8,0.,4.8
1979-08-02 00:04:50.750 ,6,0,0.,4.8,0.,4.8,0.,4.8,0.,4.8
1979-08-02 00:04:55.550 ,6,0,2.,4.8,0.,4.8,0.,4.8,0.,4.8
1979-08-02 00:05:00.350 ,6,0,0.,4.8,0.,4.8,0.,4.8,0.,4.8
1979-08-02 00:05:05.150 ,6,0,2.,4.8,0.,4.8,0.,4.8,0.,4.8
1979-08-02 00:05:09.950 ,6,0,0.,4.8,0.,4.8,0.,4.8,0.,4.8
1979-08-02 00:05:14.750 ,6,0,1.,4.8,0.,4.8,0.,4.8,0.,4.8
1979-08-02 00:05:19.550 ,6,0,0.,4.8,0.,4.8,0.,4.8,0.,4.8
1979-08-02 00:05:24.350 ,6,0,0.,4.8,0.,4.8,0.,4.8,0.,4.8
1979-08-02 00:05:29.150 ,6,0,0.,4.8,0.,4.8,0.,4.8,0.,4.8
1979-08-02 00:05:33.950 ,7,0,2.,4.8,0.,4.8,0.,4.8,0.,4.8
1979-08-02 00:05:38.750 ,7,0,0.,4.8,0.,4.8,0.,4.8,0.,4.8
1979-08-02 00:05:43.550 ,7,0,0.,4.8,0.,4.8,0.,4.8,0.,4.8
1979-08-02 00:05:48.350 ,7,0,1.,4.8,0.,4.8,0.,4.8,0.,4.8
1979-08-02 00:05:53.150 ,7,0,0.,4.8,0.,4.8,0.,4.8,0.,4.8
1979-08-02 00:05:57.950 ,7,0,0.,4.8,0.,4.8,0.,4.8,0.,4.8
1979-08-02 00:06:02.750 ,7,0,0.,4.8,0.,4.8,1.,4.8,0.,4.8
1979-08-02 00:06:07.550 ,7,0,0.,4.8,0.,4.8,0.,4.8,0.,4.8
1979-08-02 00:06:12.350 ,7,0,0.,4.8,0.,4.8,0.,4.8,0.,4.8
1979-08-02 00:06:17.150 ,7,0,0.,4.8,0.,4.8,0.,4.8,0.,4.8
1979-08-02 00:06:21.950 ,7,0,0.,4.8,0.,4.8,0.,4.8,0.,4.8
1979-08-02 00:06:26.750 ,7,0,0.,4.8,0.,4.8,0.,4.8,0.,4.8
1979-08-02 00:06:31.550 ,7,0,1.,4.8,0.,4.8,0.,4.8,0.,4.8
1979-08-02 00:06:36.350 ,7,0,1.,4.8,0.,4.8,0.,4.8,0.,4.8
1979-08-02 00:06:41.150 ,7,0,2.,4.8,0.,4.8,0.,4.8,0.,4.8
1979-08-02 00:06:45.950 ,7,0,0.,4.8,0.,4.8,0.,4.8,0.,4.8
1979-08-02 00:06:50.750 ,7,0,2.,4.8,0.,4.8,0.,4.8,0.,4.8
1979-08-02 00:06:55.550 ,7,0,1.,4.8,0.,4.8,0.,4.8,0.,4.8
1979-08-02 00:07:00.350 ,7,0,0.,4.8,0.,4.8,0.,4.8,0.,4.8
1979-08-02 00:07:05.150 ,7,0,0.,4.8,0.,4.8,0.,4.8,0.,4.8
1979-08-02 00:07:09.950 ,6,0,2.,4.8,0.,4.8,0.,4.8,0.,4.8
1979-08-02 00:07:14.750 ,6,0,1.,4.8,0.,4.8,0.,4.8,0.,4.8
1979-08-02 00:07:19.550 ,6,0,1.,4.8,0.,4.8,0.,4.8,0.,4.8
1979-08-02 00:07:24.350 ,6,0,0.,4.8,0.,4.8,0.,4.8,0.,4.8
1979-08-02 00:07:29.150 ,6,0,1.,4.8,0.,4.8,0.,4.8,0.,4.8
1979-08-02 00:07:33.950 ,6,0,0.,4.8,0.,4.8,0.,4.8,0.,4.8
1979-08-02 00:07:38.750 ,6,0,0.,4.8,0.,4.8,0.,4.8,0.,4.8
1979-08-02 00:07:43.550 ,6,0,2.,4.8,0.,4.8,0.,4.8,0.,4.8
1979-08-02 00:07:48.350 ,6,0,3.,4.8,0.,4.8,0.,4.8,0.,4.8
1979-08-02 00:07:53.150 ,6,0,0.,4.8,0.,4.8,0.,4.8,0.,4.8
1979-08-02 00:07:57.950 ,5,0,0.,4.8,0.,4.8,0.,4.8,0.,4.8
1979-08-02 00:08:02.750 ,5,0,3.,4.8,0.,4.8,0.,4.8,0.,4.8
1979-08-02 00:08:07.550 ,5,0,2.,4.8,0.,4.8,0.,4.8,0.,4.8
1979-08-02 00:08:12.350 ,5,0,2.,4.8,0.,4.8,0.,4.8,0.,4.8
1979-08-02 00:08:17.150 ,5,0,2.,4.8,0.,4.8,0.,4.8,0.,4.8
1979-08-02 00:08:21.950 ,5,0,2.,4.8,0.,4.8,0.,4.8,0.,4.8
1979-08-02 00:08:26.750 ,5,0,1.,4.8,0.,4.8,0.,4.8,0.,4.8
1979-08-02 00:08:31.550 ,5,0,1.,4.8,0.,4.8,0.,4.8,0.,4.8
1979-08-02 00:08:36.350 ,5,0,2.,4.8,0.,4.8,0.,4.8,0.,4.8
1979-08-02 00:08:41.150 ,5,0,1.,4.8,0.,4.8,0.,4.8,0.,4.8
1979-08-02 00:08:45.950 ,4,0,0.,4.8,1.,4.8,0.,4.8,0.,4.8
1979-08-02 00:08:50.750 ,4,0,3.,4.8,0.,4.8,0.,4.8,0.,4.8
1979-08-02 00:08:55.550 ,4,0,1.,4.8,0.,4.8,0.,4.8,0.,4.8
1979-08-02 00:09:00.350 ,4,0,0.,4.8,0.,4.8,0.,4.8,0.,4.8
1979-08-02 00:09:05.150 ,4,0,1.,4.8,0.,4.8,0.,4.8,0.,4.8
1979-08-02 00:09:09.950 ,4,0,1.,4.8,0.,4.8,0.,4.8,0.,4.8
1979-08-02 00:09:14.750 ,4,0,3.,4.8,0.,4.8,0.,4.8,0.,4.8
1979-08-02 00:09:19.550 ,4,0,2.,4.8,0.,4.8,0.,4.8,0.,4.8
1979-08-02 00:09:24.350 ,4,0,3.,4.8,0.,4.8,1.,4.8,0.,4.8
1979-08-02 00:09:29.150 ,4,0,0.,4.8,0.,4.8,0.,4.8,0.,4.8
1979-08-02 00:09:33.950 ,3,0,3.,4.8,0.,4.8,0.,4.8,0.,4.8
1979-08-02 00:09:38.750 ,3,0,1.,4.8,0.,4.8,0.,4.8,0.,4.8
1979-08-02 00:09:43.550 ,3,0,0.,4.8,1.,4.8,0.,4.8,0.,4.8
1979-08-02 00:09:48.350 ,3,0,0.,4.8,0.,4.8,2.,4.8,0.,4.8
1979-08-02 00:09:53.150 ,3,0,1.,4.8,0.,4.8,0.,4.8,0.,4.8
1979-08-02 00:09:57.950 ,3,0,0.,4.8,0.,4.8,1.,4.8,0.,4.8
1979-08-02 00:10:02.750 ,3,0,2.,4.8,0.,4.8,0.,4.8,0.,4.8
1979-08-02 00:10:07.550 ,3,0,0.,4.8,0.,4.8,0.,4.8,0.,4.8
1979-08-02 00:10:12.350 ,3,0,0.,4.8,0.,4.8,0.,4.8,0.,4.8
1979-08-02 00:10:17.150 ,3,0,2.,4.8,0.,4.8,0.,4.8,0.,4.8
1979-08-02 00:10:21.950 ,2,0,1.,4.8,0.,4.8,0.,4.8,0.,4.8
1979-08-02 00:10:26.750 ,2,0,0.,4.8,0.,4.8,0.,4.8,0.,4.8
1979-08-02 00:10:31.550 ,2,0,3.,4.8,0.,4.8,0.,4.8,0.,4.8
1979-08-02 00:10:36.350 ,2,0,1.,4.8,0.,4.8,0.,4.8,0.,4.8
1979-08-02 00:10:41.150 ,2,0,1.,4.8,0.,4.8,0.,4.8,0.,4.8
1979-08-02 00:10:45.950 ,2,0,1.,4.8,0.,4.8,0.,4.8,0.,4.8
1979-08-02 00:10:50.750 ,2,0,1.,4.8,0.,4.8,0.,4.8,0.,4.8
1979-08-02 00:10:55.550 ,2,0,0.,4.8,0.,4.8,0.,4.8,0.,4.8
1979-08-02 00:11:00.350 ,2,0,3.,4.8,0.,4.8,0.,4.8,0.,4.8
1979-08-02 00:11:05.150 ,2,0,2.,4.8,0.,4.8,0.,4.8,0.,4.8
1979-08-02 00:11:09.950 ,1,0,2.,4.8,0.,4.8,0.,4.8,0.,4.8
1979-08-02 00:11:14.750 ,1,0,0.,4.8,0.,4.8,0.,4.8,0.,4.8
1979-08-02 00:11:19.550 ,1,0,1.,4.8,0.,4.8,0.,4.8,0.,4.8
1979-08-02 00:11:24.350 ,1,0,1.,4.8,0.,4.8,0.,4.8,0.,4.8
1979-08-02 00:11:29.150 ,1,0,1.,4.8,0.,4.8,0.,4.8,0.,4.8
1979-08-02 00:11:33.950 ,1,0,0.,4.8,0.,4.8,0.,4.8,0.,4.8
1979-08-02 00:11:38.750 ,1,0,0.,4.8,1.,4.8,0.,4.8,0.,4.8
1979-08-02 00:11:43.550 ,1,0,2.,4.8,0.,4.8,0.,4.8,0.,4.8
1979-08-02 00:11:48.350 ,1,0,6.,4.8,0.,4.8,0.,4.8,0.,4.8
1979-08-02 00:11:53.150 ,1,0,2.,4.8,0.,4.8,1.,4.8,0.,4.8
1979-08-02 00:11:57.950 ,0,0,1.,4.8,0.,4.8,0.,4.8,0.,4.8
1979-08-02 00:12:02.750 ,0,0,3.,4.8,0.,4.8,0.,4.8,0.,4.8
1979-08-02 00:12:07.550 ,0,0,0.,4.8,0.,4.8,0.,4.8,0.,4.8
1979-08-02 00:12:12.350 ,0,0,0.,4.8,0.,4.8,0.,4.8,0.,4.8
1979-08-02 00:12:17.150 ,0,0,1.,4.8,0.,4.8,0.,4.8,0.,4.8
1979-08-02 00:12:21.950 ,0,0,0.,4.8,0.,4.8,1.,4.8,0.,4.8
1979-08-02 00:12:26.750 ,0,0,0.,4.8,0.,4.8,1.,4.8,0.,4.8
1979-08-02 00:12:31.550 ,0,0,2.,4.8,0.,4.8,0.,4.8,0.,4.8
1979-08-02 00:12:36.350 ,0,0,2.,4.8,0.,4.8,0.,4.8,0.,4.8
1979-08-02 00:12:41.150 ,0,0,2.,4.8,0.,4.8,0.,4.8,0.,4.8
1979-08-02 00:12:45.950 ,0,0,0.,4.8,0.,4.8,0.,4.8,0.,4.8
1979-08-02 00:12:50.750 ,0,0,1.,4.8,0.,4.8,0.,4.8,0.,4.8
1979-08-02 00:12:55.550 ,0,0,1.,4.8,0.,4.8,0.,4.8,0.,4.8
1979-08-02 00:13:00.350 ,0,0,1.,4.8,0.,4.8,0.,4.8,0.,4.8
1979-08-02 00:13:05.150 ,0,0,2.,4.8,0.,4.8,0.,4.8,0.,4.8
1979-08-02 00:13:09.950 ,0,0,0.,4.8,0.,4.8,0.,4.8,0.,4.8
1979-08-02 00:13:14.750 ,0,0,1.,4.8,0.,4.8,0.,4.8,0.,4.8
1979-08-02 00:13:19.550 ,0,0,1.,4.8,0.,4.8,0.,4.8,0.,4.8
1979-08-02 00:13:24.350 ,0,0,0.,4.8,0.,4.8,0.,4.8,0.,4.8
1979-08-02 00:13:29.150 ,0,0,2.,4.8,0.,4.8,0.,4.8,0.,4.8
1979-08-02 00:13:33.950 ,1,0,1.,4.8,0.,4.8,0.,4.8,0.,4.8
1979-08-02 00:13:38.750 ,1,0,1.,4.8,0.,4.8,0.,4.8,0.,4.8
1979-08-02 00:13:43.550 ,1,0,2.,4.8,0.,4.8,0.,4.8,0.,4.8
1979-08-02 00:13:48.350 ,1,0,0.,4.8,0.,4.8,0.,4.8,0.,4.8
1979-08-02 00:13:53.150 ,1,0,3.,4.8,0.,4.8,0.,4.8,0.,4.8
1979-08-02 00:13:57.950 ,1,0,1.,4.8,0.,4.8,0.,4.8,0.,4.8
1979-08-02 00:14:02.750 ,1,0,0.,4.8,0.,4.8,0.,4.8,0.,4.8
1979-08-02 00:14:07.550 ,1,0,2.,4.8,0.,4.8,0.,4.8,0.,4.8
1979-08-02 00:14:12.350 ,1,0,2.,4.8,0.,4.8,0.,4.8,0.,4.8
1979-08-02 00:14:17.150 ,1,0,0.,4.8,0.,4.8,0.,4.8,0.,4.8
1979-08-02 00:14:21.950 ,2,0,0.,4.8,0.,4.8,0.,4.8,0.,4.8
1979-08-02 00:14:26.750 ,2,0,0.,4.8,0.,4.8,0.,4.8,0.,4.8
1979-08-02 00:14:31.550 ,2,0,1.,4.8,0.,4.8,0.,4.8,0.,4.8
1979-08-02 00:14:36.350 ,2,0,2.,4.8,0.,4.8,0.,4.8,0.,4.8
1979-08-02 00:14:41.150 ,2,0,2.,4.8,0.,4.8,0.,4.8,0.,4.8
1979-08-02 00:14:45.950 ,2,0,1.,4.8,0.,4.8,0.,4.8,0.,4.8
1979-08-02 00:14:50.750 ,2,0,0.,4.8,0.,4.8,1.,4.8,0.,4.8
1979-08-02 00:14:55.550 ,2,0,1.,4.8,0.,4.8,0.,4.8,0.,4.8
1979-08-02 00:15:00.350 ,2,0,1.,4.8,0.,4.8,0.,4.8,0.,4.8
1979-08-02 00:15:05.150 ,2,0,2.,4.8,0.,4.8,0.,4.8,0.,4.8
1979-08-02 00:15:09.950 ,3,0,0.,4.8,0.,4.8,0.,4.8,0.,4.8
1979-08-02 00:15:14.750 ,3,0,0.,4.8,0.,4.8,0.,4.8,0.,4.8
1979-08-02 00:15:19.550 ,3,0,0.,4.8,0.,4.8,0.,4.8,0.,4.8
1979-08-02 00:15:24.350 ,3,0,1.,4.8,0.,4.8,0.,4.8,0.,4.8
1979-08-02 00:15:29.150 ,3,0,1.,4.8,1.,4.8,0.,4.8,0.,4.8
1979-08-02 00:15:33.950 ,3,0,1.,4.8,0.,4.8,0.,4.8,0.,4.8
1979-08-02 00:15:38.750 ,3,0,0.,4.8,0.,4.8,1.,4.8,0.,4.8
1979-08-02 00:15:43.550 ,3,0,0.,4.8,0.,4.8,0.,4.8,0.,4.8
1979-08-02 00:15:48.350 ,3,0,0.,4.8,0.,4.8,0.,4.8,0.,4.8
1979-08-02 00:15:53.150 ,3,0,3.,4.8,0.,4.8,0.,4.8,0.,4.8
1979-08-02 00:15:57.950 ,4,0,1.,4.8,0.,4.8,0.,4.8,0.,4.8
1979-08-02 00:16:02.750 ,4,0,2.,4.8,0.,4.8,0.,4.8,0.,4.8
1979-08-02 00:16:07.550 ,4,0,0.,4.8,0.,4.8,0.,4.8,0.,4.8
1979-08-02 00:16:12.350 ,4,0,0.,4.8,0.,4.8,0.,4.8,0.,4.8
1979-08-02 00:16:17.150 ,4,0,2.,4.8,0.,4.8,0.,4.8,0.,4.8
1979-08-02 00:16:21.950 ,4,0,1.,4.8,0.,4.8,0.,4.8,0.,4.8
1979-08-02 00:16:26.750 ,4,0,0.,4.8,0.,4.8,0.,4.8,0.,4.8
1979-08-02 00:16:31.550 ,4,0,0.,4.8,0.,4.8,2.,4.8,0.,4.8
1979-08-02 00:16:36.350 ,4,0,4.,4.8,0.,4.8,0.,4.8,0.,4.8
1979-08-02 00:16:41.150 ,4,0,0.,4.8,0.,4.8,0.,4.8,0.,4.8
1979-08-02 00:16:45.950 ,5,0,1.,4.8,0.,4.8,0.,4.8,0.,4.8
1979-08-02 00:16:50.750 ,5,0,0.,4.8,0.,4.8,0.,4.8,0.,4.8
1979-08-02 00:16:55.550 ,5,0,5.,4.8,0.,4.8,0.,4.8,0.,4.8
1979-08-02 00:17:00.350 ,5,0,1.,4.8,0.,4.8,0.,4.8,0.,4.8
1979-08-02 00:17:05.150 ,5,0,3.,4.8,0.,4.8,0.,4.8,0.,4.8
1979-08-02 00:17:09.950 ,5,0,1.,4.8,0.,4.8,0.,4.8,0.,4.8
1979-08-02 00:17:14.750 ,5,0,2.,4.8,0.,4.8,0.,4.8,0.,4.8
1979-08-02 00:17:19.550 ,5,0,3.,4.8,0.,4.8,0.,4.8,0.,4.8
1979-08-02 00:17:24.350 ,5,0,3.,4.8,0.,4.8,0.,4.8,0.,4.8
1979-08-02 00:17:29.150 ,5,0,1.,4.8,0.,4.8,0.,4.8,0.,4.8
1979-08-02 00:17:33.950 ,6,0,2.,4.8,0.,4.8,0.,4.8,0.,4.8
1979-08-02 00:17:38.750 ,6,0,2.,4.8,0.,4.8,0.,4.8,0.,4.8
1979-08-02 00:17:43.550 ,6,0,1.,4.8,0.,4.8,0.,4.8,0.,4.8
1979-08-02 00:17:48.350 ,6,0,2.,4.8,0.,4.8,1.,4.8,0.,4.8
1979-08-02 00:17:53.150 ,6,0,2.,4.8,0.,4.8,0.,4.8,0.,4.8
1979-08-02 00:17:57.950 ,6,0,1.,4.8,0.,4.8,0.,4.8,0.,4.8
1979-08-02 00:18:02.750 ,6,0,0.,4.8,0.,4.8,0.,4.8,0.,4.8
1979-08-02 00:18:07.550 ,6,0,1.,4.8,0.,4.8,0.,4.8,0.,4.8
1979-08-02 00:18:12.350 ,6,0,1.,4.8,0.,4.8,0.,4.8,0.,4.8
1979-08-02 00:18:17.150 ,6,0,2.,4.8,0.,4.8,0.,4.8,0.,4.8
1979-08-02 00:18:21.950 ,7,0,1.,4.8,0.,4.8,0.,4.8,0.,4.8
1979-08-02 00:18:26.750 ,7,0,1.,4.8,0.,4.8,0.,4.8,0.,4.8
1979-08-02 00:18:31.550 ,7,0,0.,4.8,0.,4.8,0.,4.8,0.,4.8
1979-08-02 00:18:36.350 ,7,0,0.,4.8,0.,4.8,0.,4.8,0.,4.8
1979-08-02 00:18:41.150 ,7,0,0.,4.8,0.,4.8,0.,4.8,0.,4.8
1979-08-02 00:18:45.950 ,7,0,1.,4.8,0.,4.8,0.,4.8,0.,4.8
1979-08-02 00:18:50.750 ,7,0,0.,4.8,0.,4.8,1.,4.8,0.,4.8
1979-08-02 00:18:55.550 ,7,0,2.,4.8,0.,4.8,0.,4.8,0.,4.8
1979-08-02 00:19:00.350 ,7,0,0.,4.8,0.,4.8,0.,4.8,0.,4.8
1979-08-02 00:19:05.150 ,7,0,1.,4.8,0.,4.8,0.,4.8,0.,4.8
1979-08-02 00:19:09.950 ,3,1,0.,4.8,0.,4.8,0.,4.8,0.,4.8
1979-08-02 00:19:14.750 ,3,1,1.,4.8,0.,4.8,0.,4.8,0.,4.8
1979-08-02 00:19:19.550 ,3,1,2.,4.8,0.,4.8,0.,4.8,0.,4.8
1979-08-02 00:19:24.350 ,3,1,1.,4.8,0.,4.8,0.,4.8,0.,4.8
1979-08-02 00:19:29.150 ,3,1,0.,4.8,0.,4.8,0.,4.8,0.,4.8
1979-08-02 00:19:33.950 ,0,1,1.,4.8,0.,4.8,0.,4.8,0.,4.8
1979-08-02 00:19:38.750 ,0,1,0.,4.8,0.,4.8,0.,4.8,0.,4.8
1979-08-02 00:19:43.550 ,0,1,0.,4.8,0.,4.8,1.,4.8,0.,4.8
1979-08-02 00:19:48.350 ,0,1,0.,4.8,0.,4.8,0.,4.8,0.,4.8
1979-08-02 00:19:53.150 ,0,1,0.,4.8,0.,4.8,0.,4.8,0.,4.8
1979-08-02 00:19:57.950 ,4,1,0.,4.8,0.,4.8,0.,4.8,0.,4.8
1979-08-02 00:20:02.750 ,4,1,2.,4.8,0.,4.8,0.,4.8,0.,4.8
1979-08-02 00:20:07.550 ,4,1,1.,4.8,0.,4.8,0.,4.8,0.,4.8
1979-08-02 00:20:12.350 ,4,1,2.,4.8,0.,4.8,0.,4.8,0.,4.8
1979-08-02 00:20:17.150 ,4,1,2.,4.8,0.,4.8,0.,4.8,0.,4.8
1979-08-02 00:20:21.950 ,7,1,1.,4.8,0.,4.8,0.,4.8,0.,4.8
1979-08-02 00:20:26.750 ,7,1,0.,4.8,0.,4.8,0.,4.8,0.,4.8
1979-08-02 00:20:31.550 ,7,1,0.,4.8,0.,4.8,0.,4.8,0.,4.8
1979-08-02 00:20:36.350 ,7,1,0.,4.8,0.,4.8,0.,4.8,0.,4.8
1979-08-02 00:20:41.150 ,7,1,1.,4.8,0.,4.8,0.,4.8,0.,4.8
1979-08-02 00:20:45.950 ,3,1,2.,4.8,0.,4.8,0.,4.8,0.,4.8
1979-08-02 00:20:50.750 ,3,1,1.,4.8,0.,4.8,1.,4.8,0.,4.8
1979-08-02 00:20:55.550 ,3,1,1.,4.8,0.,4.8,0.,4.8,0.,4.8
1979-08-02 00:21:00.350 ,3,1,0.,4.8,0.,4.8,0.,4.8,0.,4.8
1979-08-02 00:21:05.150 ,3,1,1.,4.8,0.,4.8,0.,4.8,0.,4.8
1979-08-02 00:21:09.950 ,0,1,0.,4.8,0.,4.8,0.,4.8,0.,4.8
1979-08-02 00:21:14.750 ,0,1,1.,4.8,0.,4.8,0.,4.8,0.,4.8
1979-08-02 00:21:19.550 ,0,1,1.,4.8,0.,4.8,1.,4.8,0.,4.8
1979-08-02 00:21:24.350 ,0,1,2.,4.8,0.,4.8,1.,4.8,0.,4.8
1979-08-02 00:21:29.150 ,0,1,1.,4.8,0.,4.8,0.,4.8,0.,4.8
1979-08-02 00:21:33.950 ,4,1,1.,4.8,0.,4.8,0.,4.8,0.,4.8
1979-08-02 00:21:38.750 ,4,1,2.,4.8,0.,4.8,0.,4.8,0.,4.8
1979-08-02 00:21:43.550 ,4,1,0.,4.8,0.,4.8,0.,4.8,0.,4.8
1979-08-02 00:21:48.350 ,4,1,0.,4.8,0.,4.8,0.,4.8,0.,4.8
1979-08-02 00:21:53.150 ,4,1,1.,4.8,0.,4.8,0.,4.8,0.,4.8
1979-08-02 00:21:57.950 ,7,1,0.,4.8,0.,4.8,0.,4.8,0.,4.8
1979-08-02 00:22:02.750 ,7,1,4.,4.8,0.,4.8,0.,4.8,0.,4.8
1979-08-02 00:22:07.550 ,7,1,2.,4.8,0.,4.8,0.,4.8,0.,4.8
1979-08-02 00:22:12.350 ,7,1,2.,4.8,0.,4.8,1.,4.8,0.,4.8
1979-08-02 00:22:17.150 ,7,1,1.,4.8,0.,4.8,0.,4.8,0.,4.8
1979-08-02 00:22:21.950 ,3,1,1.,4.8,0.,4.8,0.,4.8,0.,4.8
1979-08-02 00:22:26.750 ,3,1,1.,4.8,0.,4.8,0.,4.8,0.,4.8
1979-08-02 00:22:31.550 ,3,1,1.,4.8,0.,4.8,0.,4.8,0.,4.8
1979-08-02 00:22:36.350 ,3,1,3.,4.8,0.,4.8,0.,4.8,0.,4.8
1979-08-02 00:22:41.150 ,3,1,0.,4.8,1.,4.8,0.,4.8,0.,4.8
1979-08-02 00:22:45.950 ,0,1,1.,4.8,1.,4.8,0.,4.8,0.,4.8
1979-08-02 00:22:50.750 ,0,1,2.,4.8,0.,4.8,0.,4.8,0.,4.8
1979-08-02 00:22:55.550 ,0,1,1.,4.8,0.,4.8,0.,4.8,0.,4.8
1979-08-02 00:23:00.350 ,0,1,1.,4.8,0.,4.8,1.,4.8,0.,4.8
1979-08-02 00:23:05.150 ,0,1,2.,4.8,0.,4.8,0.,4.8,0.,4.8
1979-08-02 00:23:09.950 ,4,1,2.,4.8,0.,4.8,0.,4.8,0.,4.8
1979-08-02 00:23:14.750 ,4,1,0.,4.8,1.,4.8,1.,4.8,0.,4.8
1979-08-02 00:23:19.550 ,4,1,3.,4.8,0.,4.8,0.,4.8,0.,4.8
1979-08-02 00:23:24.350 ,4,1,1.,4.8,0.,4.8,0.,4.8,0.,4.8
1979-08-02 00:23:29.150 ,4,1,1.,4.8,0.,4.8,0.,4.8,0.,4.8
1979-08-02 00:23:33.950 ,7,1,2.,4.8,0.,4.8,0.,4.8,0.,4.8
1979-08-02 00:23:38.750 ,7,1,1.,4.8,0.,4.8,1.,4.8,0.,4.8
1979-08-02 00:23:43.550 ,7,1,1.,4.8,0.,4.8,0.,4.8,0.,4.8
1979-08-02 00:23:48.350 ,7,1,0.,4.8,0.,4.8,0.,4.8,0.,4.8
1979-08-02 00:23:53.150 ,7,1,0.,4.8,0.,4.8,0.,4.8,0.,4.8
1979-08-02 00:23:57.950 ,3,1,0.,4.8,0.,4.8,1.,4.8,0.,4.8
1979-08-02 00:24:02.750 ,3,1,0.,4.8,0.,4.8,0.,4.8,0.,4.8
1979-08-02 00:24:07.550 ,3,1,2.,4.8,0.,4.8,0.,4.8,0.,4.8
1979-08-02 00:24:12.350 ,3,1,0.,4.8,0.,4.8,0.,4.8,0.,4.8
1979-08-02 00:24:17.150 ,3,1,2.,4.8,0.,4.8,0.,4.8,0.,4.8
1979-08-02 00:24:21.950 ,0,1,2.,4.8,0.,4.8,0.,4.8,0.,4.8
1979-08-02 00:24:26.750 ,0,1,1.,4.8,0.,4.8,0.,4.8,0.,4.8
1979-08-02 00:24:31.550 ,0,1,0.,4.8,0.,4.8,0.,4.8,0.,4.8
1979-08-02 00:24:36.350 ,0,1,2.,4.8,0.,4.8,1.,4.8,0.,4.8
1979-08-02 00:24:41.150 ,0,1,1.,4.8,0.,4.8,0.,4.8,0.,4.8
1979-08-02 00:24:45.950 ,4,1,0.,4.8,0.,4.8,0.,4.8,0.,4.8
1979-08-02 00:24:50.750 ,4,1,1.,4.8,0.,4.8,1.,4.8,0.,4.8
1979-08-02 00:24:55.550 ,4,1,2.,4.8,1.,4.8,0.,4.8,0.,4.8
1979-08-02 00:25:00.350 ,4,1,0.,4.8,0.,4.8,0.,4.8,0.,4.8
1979-08-02 00:25:05.150 ,4,1,1.,4.8,0.,4.8,0.,4.8,0.,4.8
1979-08-02 00:25:09.950 ,7,1,0.,4.8,0.,4.8,0.,4.8,0.,4.8
1979-08-02 00:25:14.750 ,7,1,2.,4.8,0.,4.8,0.,4.8,0.,4.8
1979-08-02 00:25:19.550 ,7,1,1.,4.8,0.,4.8,1.,4.8,0.,4.8
1979-08-02 00:25:24.350 ,7,1,0.,4.8,0.,4.8,0.,4.8,0.,4.8
1979-08-02 00:25:29.150 ,7,1,0.,4.8,0.,4.8,0.,4.8,0.,4.8
1979-08-02 00:25:33.950 ,3,1,0.,4.8,0.,4.8,0.,4.8,0.,4.8
1979-08-02 00:25:38.750 ,3,1,1.,4.8,0.,4.8,0.,4.8,0.,4.8
1979-08-02 00:25:43.550 ,3,1,1.,4.8,0.,4.8,0.,4.8,0.,4.8
1979-08-02 00:25:48.350 ,3,1,0.,4.8,0.,4.8,0.,4.8,0.,4.8
1979-08-02 00:25:53.150 ,3,1,0.,4.8,0.,4.8,0.,4.8,0.,4.8
1979-08-02 00:25:57.950 ,0,1,0.,4.8,0.,4.8,0.,4.8,0.,4.8
1979-08-02 00:26:02.750 ,0,1,0.,4.8,0.,4.8,0.,4.8,0.,4.8
1979-08-02 00:26:07.550 ,0,1,2.,4.8,0.,4.8,0.,4.8,0.,4.8
1979-08-02 00:26:12.350 ,0,1,2.,4.8,0.,4.8,0.,4.8,0.,4.8
1979-08-02 00:26:17.150 ,0,1,1.,4.8,0.,4.8,0.,4.8,0.,4.8
1979-08-02 00:26:21.950 ,4,1,1.,4.8,0.,4.8,0.,4.8,0.,4.8
1979-08-02 00:26:26.750 ,4,1,2.,4.8,0.,4.8,0.,4.8,0.,4.8
1979-08-02 00:26:31.550 ,4,1,0.,4.8,0.,4.8,0.,4.8,0.,4.8
1979-08-02 00:26:36.350 ,4,1,1.,4.8,1.,4.8,0.,4.8,0.,4.8
1979-08-02 00:26:41.150 ,4,1,1.,4.8,0.,4.8,0.,4.8,0.,4.8
1979-08-02 00:26:45.950 ,7,1,1.,4.8,0.,4.8,0.,4.8,0.,4.8
1979-08-02 00:26:50.750 ,7,1,4.,4.8,0.,4.8,1.,4.8,0.,4.8
1979-08-02 00:26:55.550 ,7,1,1.,4.8,0.,4.8,0.,4.8,0.,4.8
1979-08-02 00:27:00.350 ,7,1,3.,4.8,0.,4.8,0.,4.8,0.,4.8
1979-08-02 00:27:05.150 ,7,1,0.,4.8,0.,4.8,0.,4.8,0.,4.8
1979-08-02 00:27:09.950 ,3,1,0.,4.8,0.,4.8,0.,4.8,0.,4.8
1979-08-02 00:27:14.750 ,3,1,1.,4.8,0.,4.8,0.,4.8,0.,4.8
1979-08-02 00:27:19.550 ,3,1,3.,4.8,0.,4.8,0.,4.8,0.,4.8
1979-08-02 00:27:24.350 ,3,1,2.,4.8,0.,4.8,0.,4.8,0.,4.8
1979-08-02 00:27:29.150 ,3,1,1.,4.8,0.,4.8,0.,4.8,0.,4.8
1979-08-02 00:27:33.950 ,0,1,1.,4.8,0.,4.8,1.,4.8,0.,4.8
1979-08-02 00:27:38.750 ,0,1,2.,4.8,0.,4.8,0.,4.8,0.,4.8
1979-08-02 00:27:43.550 ,0,1,1.,4.8,0.,4.8,0.,4.8,0.,4.8
1979-08-02 00:27:48.350 ,0,1,0.,4.8,0.,4.8,0.,4.8,0.,4.8
1979-08-02 00:27:53.150 ,0,1,2.,4.8,0.,4.8,0.,4.8,0.,4.8
1979-08-02 00:27:57.950 ,4,1,2.,4.8,0.,4.8,0.,4.8,0.,4.8
1979-08-02 00:28:02.750 ,4,1,3.,4.8,0.,4.8,0.,4.8,0.,4.8
1979-08-02 00:28:07.550 ,4,1,1.,4.8,0.,4.8,0.,4.8,0.,4.8
1979-08-02 00:28:12.350 ,4,1,2.,4.8,0.,4.8,0.,4.8,0.,4.8
1979-08-02 00:28:17.150 ,4,1,1.,4.8,0.,4.8,0.,4.8,0.,4.8
1979-08-02 00:28:21.950 ,7,1,0.,4.8,0.,4.8,0.,4.8,0.,4.8
1979-08-02 00:28:26.750 ,7,1,0.,4.8,0.,4.8,0.,4.8,0.,4.8
1979-08-02 00:28:31.550 ,7,1,0.,4.8,0.,4.8,0.,4.8,0.,4.8
1979-08-02 00:28:36.350 ,7,1,1.,4.8,0.,4.8,0.,4.8,0.,4.8
1979-08-02 00:28:41.150 ,7,1,2.,4.8,0.,4.8,0.,4.8,0.,4.8
1979-08-02 00:28:45.950 ,3,1,0.,4.8,0.,4.8,0.,4.8,0.,4.8
1979-08-02 00:28:50.750 ,3,1,1.,4.8,0.,4.8,0.,4.8,0.,4.8
1979-08-02 00:28:55.550 ,3,1,1.,4.8,0.,4.8,0.,4.8,0.,4.8
1979-08-02 00:29:00.350 ,3,1,1.,4.8,0.,4.8,0.,4.8,0.,4.8
1979-08-02 00:29:05.150 ,3,1,0.,4.8,0.,4.8,1.,4.8,0.,4.8
1979-08-02 00:29:09.950 ,0,1,3.,4.8,0.,4.8,0.,4.8,0.,4.8
1979-08-02 00:29:14.750 ,0,1,2.,4.8,0.,4.8,0.,4.8,0.,4.8
1979-08-02 00:29:19.550 ,0,1,1.,4.8,0.,4.8,0.,4.8,0.,4.8
1979-08-02 00:29:24.350 ,0,1,2.,4.8,0.,4.8,0.,4.8,0.,4.8
1979-08-02 00:29:29.150 ,0,1,3.,4.8,0.,4.8,0.,4.8,0.,4.8
1979-08-02 00:29:33.950 ,0,0,1.,4.8,0.,4.8,0.,4.8,0.,4.8
1979-08-02 00:29:38.750 ,0,0,1.,4.8,0.,4.8,0.,4.8,0.,4.8
1979-08-02 00:29:43.550 ,0,0,0.,4.8,0.,4.8,1.,4.8,0.,4.8
1979-08-02 00:29:48.350 ,0,0,0.,4.8,0.,4.8,0.,4.8,0.,4.8
1979-08-02 00:29:53.150 ,0,0,2.,4.8,0.,4.8,0.,4.8,0.,4.8
1979-08-02 00:29:57.950 ,0,0,0.,4.8,0.,4.8,0.,4.8,0.,4.8
1979-08-02 00:30:02.750 ,0,0,1.,4.8,0.,4.8,0.,4.8,0.,4.8
1979-08-02 00:30:07.550 ,0,0,0.,4.8,0.,4.8,0.,4.8,0.,4.8
1979-08-02 00:30:12.350 ,0,0,1.,4.8,0.,4.8,0.,4.8,0.,4.8
1979-08-02 00:30:17.150 ,0,0,1.,4.8,0.,4.8,0.,4.8,0.,4.8
1979-08-02 00:30:21.950 ,5,0,3.,4.8,0.,4.8,0.,4.8,0.,4.8
1979-08-02 00:30:26.750 ,5,0,0.,4.8,0.,4.8,0.,4.8,0.,4.8
1979-08-02 00:30:31.550 ,5,0,1.,4.8,0.,4.8,0.,4.8,0.,4.8
1979-08-02 00:30:36.350 ,5,0,1.,4.8,0.,4.8,0.,4.8,0.,4.8
1979-08-02 00:30:41.150 ,5,0,1.,4.8,0.,4.8,0.,4.8,0.,4.8
1979-08-02 00:30:45.950 ,5,0,0.,4.8,0.,4.8,0.,4.8,0.,4.8
1979-08-02 00:30:50.750 ,5,0,0.,4.8,0.,4.8,1.,4.8,0.,4.8
1979-08-02 00:30:55.550 ,5,0,0.,4.8,0.,4.8,0.,4.8,0.,4.8
1979-08-02 00:31:00.350 ,5,0,1.,4.8,0.,4.8,0.,4.8,0.,4.8
1979-08-02 00:31:05.150 ,5,0,2.,4.8,0.,4.8,0.,4.8,0.,4.8
1979-08-02 00:31:09.950 ,4,0,0.,4.8,0.,4.8,0.,4.8,0.,4.8
1979-08-02 00:31:14.750 ,4,0,0.,4.8,0.,4.8,0.,4.8,0.,4.8
1979-08-02 00:31:19.550 ,4,0,1.,4.8,0.,4.8,0.,4.8,0.,4.8
1979-08-02 00:31:24.350 ,4,0,2.,4.8,0.,4.8,0.,4.8,0.,4.8
1979-08-02 00:31:29.150 ,4,0,3.,4.8,0.,4.8,0.,4.8,0.,4.8
1979-08-02 00:31:33.950 ,4,0,0.,4.8,0.,4.8,0.,4.8,0.,4.8
1979-08-02 00:31:38.750 ,4,0,0.,4.8,0.,4.8,0.,4.8,0.,4.8
1979-08-02 00:31:43.550 ,4,0,2.,4.8,0.,4.8,0.,4.8,0.,4.8
1979-08-02 00:31:48.350 ,4,0,2.,4.8,0.,4.8,0.,4.8,0.,4.8
1979-08-02 00:31:53.150 ,4,0,1.,4.8,0.,4.8,0.,4.8,0.,4.8
1979-08-02 00:31:57.950 ,3,0,1.,4.8,0.,4.8,2.,4.8,0.,4.8
1979-08-02 00:32:02.750 ,3,0,2.,4.8,0.,4.8,0.,4.8,0.,4.8
1979-08-02 00:32:07.550 ,3,0,1.,4.8,0.,4.8,0.,4.8,0.,4.8
1979-08-02 00:32:12.350 ,3,0,0.,4.8,0.,4.8,0.,4.8,0.,4.8
1979-08-02 00:32:17.150 ,3,0,1.,4.8,0.,4.8,0.,4.8,0.,4.8
1979-08-02 00:32:21.950 ,3,0,2.,4.8,0.,4.8,0.,4.8,0.,4.8
1979-08-02 00:32:26.750 ,3,0,0.,4.8,0.,4.8,0.,4.8,0.,4.8
1979-08-02 00:32:31.550 ,3,0,2.,4.8,0.,4.8,0.,4.8,0.,4.8
1979-08-02 00:32:36.350 ,3,0,2.,4.8,0.,4.8,0.,4.8,0.,4.8
1979-08-02 00:32:41.150 ,3,0,0.,4.8,0.,4.8,0.,4.8,0.,4.8
1979-08-02 00:32:45.950 ,2,0,1.,4.8,0.,4.8,0.,4.8,0.,4.8
1979-08-02 00:32:50.750 ,2,0,2.,4.8,0.,4.8,0.,4.8,0.,4.8
1979-08-02 00:32:55.550 ,2,0,1.,4.8,0.,4.8,1.,4.8,0.,4.8
1979-08-02 00:33:00.350 ,2,0,1.,4.8,0.,4.8,1.,4.8,0.,4.8
1979-08-02 00:33:05.150 ,2,0,0.,4.8,0.,4.8,0.,4.8,0.,4.8
1979-08-02 00:33:09.950 ,2,0,1.,4.8,0.,4.8,0.,4.8,0.,4.8
1979-08-02 00:33:14.750 ,2,0,0.,4.8,0.,4.8,0.,4.8,0.,4.8